Regional Weather Roundup
Issued by NWS Portland, ME

Current Version | Previous Version | Text Only | Print | Product List | Glossary Off
Versions: 1 2 3 4 5 6 7 8 9 10 11 12 13 14 15 16 17 18 19 20 21 22 23 24 25 26 27 28 29 30 31 32 33 34 35 36 37 38 39 40 41 42 43 44 45 46 47 48 49 50
000 ASUS41 KGYX 251605 RWRGYX WEATHER ROUNDUP FOR MAINE AND NEW HAMPSHIRE NATIONAL WEATHER SERVICE GRAY ME 1200 PM EDT MON SEP 25 2017 MEZ002-005-006-010-012-015-018-020-021-024-026-027-029-251700- MAINE CITY SKY/WX TMP DP RH WIND PRES REMARKS PORTLAND MOSUNNY 81 69 67 E12G17 30.09F SANFORD SUNNY 85 71 63 NE6 30.09F HX 90 BAR HARBOR SUNNY 76 66 71 E3 30.10F WISCASSET SUNNY 84 70 62 S6 30.10S ROCKLAND MOSUNNY 69 63 81 E9 30.11S FRYEBURG SUNNY 85 71 63 VRB3 30.10F HX 90 LEWISTONAUBURN SUNNY 83 71 67 N5 30.09F AUGUSTA SUNNY 84 69 60 VRB3 30.10F WATERVILLE SUNNY 83 71 67 CALM 30.07F BANGOR MOSUNNY 84 67 56 CALM 30.09F GREENVILLE N/A 80 68 66 CALM 30.10F MILLINOCKET SUNNY 81 68 64 VRB3 30.08F HOULTON SUNNY 78 66 66 S8 30.05F PRESQUE ISLE SUNNY 79 67 66 SW9 30.04F HAZE FRENCHVILLE SUNNY 74 62 66 S8 30.03F CARIBOU SUNNY 79 66 64 VRB5 30.03F $$ NHZ002-005-008-009-011-012-014-251700- NEW HAMPSHIRE CITY SKY/WX TMP DP RH WIND PRES REMARKS PORTSMOUTH SUNNY 81 69 66 SE8 30.07F ROCHESTER SUNNY 86 69 56 E6 30.09F HX 90 NASHUA MOSUNNY 85 72 65 VRB3 30.09F HX 91 MANCHESTER MOSUNNY 86 70 58 E6 30.07F HX 90 CONCORD SUNNY 87 70 56 VRB6 30.09F HX 92 LACONIA SUNNY 82 70 66 VRB6 30.11F PLYMOUTH FAIR 83 70 64 CALM 30.10F BERLIN SUNNY 84 64 50 SW3 30.13F WHITEFIELD SUNNY 85 67 54 CALM 30.12F JAFFREY SUNNY 83 69 62 VRB5 30.12F KEENE SUNNY 91 72 53 CALM 30.09F HX 98 LEBANON SUNNY 82 70 66 CALM 30.10F MT WASHINGTON PTSUNNY 61 57 88 VRB1 N/A $$ VTZ005-007-008-251700- VERMONT CITY SKY/WX TMP DP RH WIND PRES REMARKS ST JOHNSBURY N/A 80 70 71 MISG 30.09F MONTPELIER SUNNY 81 70 69 NW3 30.17F BURLINGTON MOSUNNY 87 71 58 NW3 30.09F HX 93 $$ MAZ007-012-024-CTZ003-RIZ002-NYZ038-NYZ072-251700- SOUTHERN NEW ENGLAND AND NY CITY SKY/WX TMP DP RH WIND PRES REMARKS BOSTON SUNNY 77 67 71 E8 30.08F WORCESTER SUNNY 80 65 59 E6 30.13S NANTUCKET CLOUDY 70 68 93 NE7 30.09R PROVIDENCE SUNNY 82 66 58 S3 30.08S HARTFORD MOSUNNY 86 69 56 VRB3 30.08F HX 90 ALBANY MOSUNNY 83 69 62 NW6 30.09F NEW YORK CITY SUNNY 81 67 62 NE9 30.06F $$ ANZ081-ANZ082-ANZ150-NHZ014-MEZ023>029-251700- COASTAL MARINE OBSERVATIONS STATION/POSITION TIME TEMP WIND PRES WAVE AIR SEA DIR/SP/G HT/PER (UTC) (F) (DEG/KT/KT) (MB) (FT/S) MOUNT DESERT ROC 1600 58 60/ 5/ 5 1019.9S MATINICUS ROCK 1500 62 60/ 7/ 7 1019.2R ISLE OF SHOALS 1500 67 60/ 6/ 6 1019.0R JEFFREYS LEDGE 1536 65 N/A 4/13 GEORGES BANK BUO 1450 75 68 1018.2 7/14 $$ .............KEY.............. WCI - WIND CHILL TC - TEMPERATURE IN CELSIUS VSB - VISIBILITY IN MILES HX - HEAT INDEX FAIR- INDICATES FEW OR NO CLOUDS BELOW 12,000 FT, WITH NO SIGNIFICANT WEATHER AND/OR OBSTRUCTIONS TO VISIBILITY.

USA.gov is the U.S. government's official web portal to all federal, state and local government web resources and services.